This is the latest recevied weather packets stored in our database for station/object 9W2KHE-10. If no packets are shown the sender has not sent any weather packets the latest 10 day(s).
| Time | Temp. | Humidity | Pressure | Rain* | Wind** | Luminosity | Snow |
|---|---|---|---|---|---|---|---|
| 1788061496 | 30° C | 60% | 1014.8 hPa | - | - | - | - |
| 1788060596 | 30° C | 60% | 1014.9 hPa | - | - | - | - |
| 1788059696 | 30° C | 61% | 1015.1 hPa | - | - | - | - |
| 1788058795 | 30° C | 61% | 1015.1 hPa | - | - | - | - |
| 1788057895 | 30° C | 62% | 1015 hPa | - | - | - | - |
| 1788056995 | 30° C | 61% | 1015 hPa | - | - | - | - |
| 1788056095 | 30° C | 62% | 1015.1 hPa | - | - | - | - |
| 1788055195 | 29.44° C | 61% | 1015.1 hPa | - | - | - | - |
| 1788054295 | 29.44° C | 61% | 1015.1 hPa | - | - | - | - |
| 1788053405 | 29.44° C | 62% | 1015.1 hPa | - | - | - | - |
| 1788052495 | 29.44° C | 62% | 1015.2 hPa | - | - | - | - |
| 1788051595 | 29.44° C | 62% | 1015.1 hPa | - | - | - | - |
| 1788050694 | 29.44° C | 61% | 1015.2 hPa | - | - | - | - |
| 1788049794 | 29.44° C | 60% | 1015 hPa | - | - | - | - |
| 1788048894 | 29.44° C | 60% | 1014.9 hPa | - | - | - | - |
| 1788047994 | 29.44° C | 59% | 1014.7 hPa | - | - | - | - |
| 1788047094 | 29.44° C | 60% | 1014.4 hPa | - | - | - | - |
| 1788046194 | 29.44° C | 59% | 1014 hPa | - | - | - | - |
| 1788045294 | 29.44° C | 59% | 1013.8 hPa | - | - | - | - |
| 1788044394 | 29.44° C | 58% | 1013.6 hPa | - | - | - | - |
| 1788043493 | 30° C | 58% | 1013.6 hPa | - | - | - | - |
| 1788042593 | 30.56° C | 56% | 1013.7 hPa | - | - | - | - |
| 1788041692 | 32.22° C | 50% | 1013.7 hPa | - | - | - | - |
| 1788015594 | 31.67° C | 59% | 1013.8 hPa | - | - | - | - |
| 1788014694 | 31.67° C | 59% | 1013.7 hPa | - | - | - | - |
* Rain since midnight (hover to see other rain measurements)
** Current wind speed in m/s (hover to see current wind gust speed)